User: anonymous   Login
Location: Montr�al
(45.5000°N, 73.5830°W)
Time: 05:05:13
(UTC-04:00)
Language:

Cosmos 1470 Rocket - Orbit

View from above orbital plane
View from above orbital plane
View from above satellite
View from above satellite

Ground track
Ground track

The orbit data is extracted from the following two-line orbital elements,

1 14148U 83061B   14302.92000617  .00000639  00000-0  75916-4 0  7955
2 14148 082.5181 089.7140 0020483 258.8072 216.4516 14.82767364692362
Epoch (UTC): 29 October 2014 22:04:48
Eccentricity: 0.0020483
inclination: 82.5181°
perigee height: 606 km
apogee height: 635 km
right ascension of ascending node: 89.7140°
argument of perigee: 258.8072°
revolutions per day: 14.82767364
mean anomaly at epoch: 216.4516°
orbit number at epoch: 69236

The dashed part of the orbit path shows where the satellite is in the earth's shadow,  

DLR